Weather History for Komatsu AB, Japan

Change the Weather History Date:

Sunday, December 9, 2012

  Actual Average Record
Temperature  
Mean Temperature 36 °F -  
Max Temperature 41 °F 46 °F 60 °F (2000)
Min Temperature 32 °F 34 °F 32 °F (2012)
Degree Days  
Heating Degree Days 28    
Moisture  
Dew Point 25 °F    
Average Humidity 62    
Maximum Humidity 81    
Minimum Humidity 42    
Precipitation  
Precipitation 0.00 in - - ()
Sea Level Pressure  
Sea Level Pressure 29.75 in    
Wind  
Wind Speed 19 mph ()    
Max Wind Speed 36 mph    
Max Gust Speed 54 mph    
Visibility 4.7 miles    
Events Rain , Snow    
Averages and records for this station are not official NWS values.
T = Trace of Precipitation, MM = Missing Value Source: Averaged Metar Reports

Daily Weather History Graph

Daily Weather History Graph

Search for Another Location

Airport:

Trip Planner

Search our weather history database for the weather conditions in past years. The results will help you decide how hot, cold, wet, or windy it might be!

Date:

Astronomy

Dec. 09, 2012 Rise Set
Actual Time 6:54 AM JST 4:39 PM JST
Civil Twilight 6:25 AM JST 5:07 PM JST
Nautical Twilight 5:53 AM JST 5:39 PM JST
Astronomical Twilight 5:22 AM JST 6:11 PM JST
Moon 1:50 AM JST (12/9) 1:16 PM JST (12/9)
Length of Visible Light 10h 42m
Length of Day
9h 44m
Waning Crescent, 24% of the Moon is Illuminated
Dec 9
Waning Crescent
Dec 13
New
Dec 20
First Quarter
Dec 28
Full
Jan 5
Last Quarter

Hourly Weather History & Observations

Time (JST) Temp. Windchill Dew Point Humidity Pressure Visibility Wind Dir Wind Speed Gust Speed Precip Events Conditions
12:00 AM 32.0 °F 22.1 °F 26.6 °F 80% 29.80 in 0.6 mi SSW 13.8 mph - N/A Snow Light Snow Showers
1:00 AM 32.0 °F 20.8 °F 26.6 °F 80% 29.80 in 0.5 mi SSW 17.3 mph - N/A Snow Snow Showers
2:00 AM 33.8 °F 23.5 °F 26.6 °F 75% 29.80 in 1.6 mi South 16.1 mph - N/A Snow Light Snow Showers
3:00 AM 33.8 °F 23.2 °F 28.4 °F 81% 29.77 in 2.2 mi SSW 17.3 mph - N/A Snow Light Snow Showers
4:00 AM 33.8 °F 24.8 °F 26.6 °F 75% 29.74 in 6.2 mi SSW 12.7 mph - N/A Snow Light Snow Showers
5:00 AM 35.6 °F 24.8 °F 26.6 °F 70% 29.74 in 6.2 mi SW 19.6 mph - N/A Snow Light Snow Showers
6:00 AM 39.2 °F 28.3 °F 23.0 °F 52% 29.71 in 6.2 mi West 25.3 mph 41.4 mph N/A Rain Light Rain Showers
7:00 AM 41.0 °F 29.7 °F 23.0 °F 49% 29.71 in 6.2 mi West 31.1 mph 46.0 mph N/A   Mostly Cloudy
8:00 AM 41.0 °F 29.7 °F 19.4 °F 42% 29.71 in 6.2 mi West 31.1 mph 48.3 mph N/A   Partly Cloudy
9:00 AM 39.2 °F 27.2 °F 24.8 °F 56% 29.74 in 6.2 mi West 31.1 mph 46.0 mph N/A Rain Light Rain Showers
10:00 AM 39.2 °F 28.3 °F 24.8 °F 56% 29.74 in 2.5 mi West 25.3 mph 39.1 mph N/A Rain Light Rain Showers
11:00 AM 39.2 °F 26.5 °F 24.8 °F 56% 29.74 in 6.2 mi West 35.7 mph 47.2 mph N/A   Partly Cloudy
12:00 PM 39.2 °F 26.8 °F 17.6 °F 42% 29.71 in 6.2 mi West 33.4 mph 47.2 mph N/A   Partly Cloudy
1:00 PM 39.2 °F 27.4 °F 24.8 °F 56% 29.71 in 2.5 mi West 29.9 mph 41.4 mph N/A Rain Light Rain Showers
2:00 PM 39.2 °F 27.4 °F 24.8 °F 56% 29.71 in 6.2 mi West 29.9 mph 41.4 mph N/A   Partly Cloudy
3:00 PM 35.6 °F 22.5 °F 26.6 °F 70% 29.74 in 5.0 mi West 29.9 mph - N/A Snow Light Snow Showers
4:00 PM 37.4 °F 24.2 °F 24.8 °F 60% 29.74 in 5.0 mi West 34.5 mph 54.1 mph N/A Rain Light Rain Showers
5:00 PM 35.6 °F 27.5 °F 28.4 °F 75% 29.74 in 6.2 mi NNW 11.5 mph - N/A Snow Light Snow Showers
6:00 PM 37.4 °F 28.2 °F 26.6 °F 65% 29.77 in 6.2 mi NNW 16.1 mph - N/A Snow Light Snow Showers
7:00 PM 37.4 °F 27.8 °F 23.0 °F 56% 29.80 in 6.2 mi NW 17.3 mph - N/A   Partly Cloudy
8:00 PM 35.6 °F 29.9 °F 24.8 °F 65% 29.77 in 6.2 mi West 6.9 mph - N/A Rain Light Rain Showers
9:00 PM 37.4 °F 25.9 °F 24.8 °F 60% 29.77 in 6.2 mi NW 25.3 mph 38.0 mph N/A   Partly Cloudy
10:00 PM 35.6 °F 25.9 °F 23.0 °F 60% 29.80 in 3.1 mi WNW 16.1 mph - N/A Snow Light Snow Showers
11:00 PM 39.2 °F 27.2 °F 23.0 °F 52% 29.77 in 1.9 mi NW 31.1 mph - N/A   Small Hail